When you browse on this site, cookies collect data to enhance your experience and personalize the content and advertising you see.
Visit our Privacy Policy to learn more. By continuing to use the site, you agree to this use of cookies and data.
  • In Austria
  • List of Countries
  • For 7 days
  • Water Temperature
  • Satellite Maps
  • Weather Map
  • News
  • Weather Widgets
  • user-avatar
    Login

    Hourly Weather Bezpraw

    Today, 18 January, Friday

    Time Temperature Precipitation Wind Pressure Humidity
    00:00 -1°C° 0.2 mm 7 mps 747 mmHg 84%
    01:00 -1°C° 0 mm 7 mps 748 mmHg 84%
    02:00 -1°C° 0.3 mm 7 mps 749 mmHg 83%
    03:00 -2°C° 0.3 mm 7 mps 750 mmHg 81%
    04:00 -2°C° 0.3 mm 8 mps 751 mmHg 80%
    05:00 -2°C° 0 mm 7 mps 752 mmHg 78%
    06:00 -3°C° 0 mm 7 mps 753 mmHg 77%
    07:00 -4°C° 0 mm 7 mps 754 mmHg 75%
    08:00 -3°C° 0 mm 6 mps 755 mmHg 72%
    09:00 -3°C° 0 mm 6 mps 756 mmHg 70%
    10:00 -2°C° 0 mm 6 mps 757 mmHg 68%
    11:00 -2°C° 0.1 mm 7 mps 757 mmHg 68%
    12:00 -2°C° 0.1 mm 7 mps 757 mmHg 68%
    13:00 -1°C° 0.1 mm 7 mps 758 mmHg 68%
    14:00 -2°C° 0.1 mm 7 mps 758 mmHg 71%
    15:00 -2°C° 0.1 mm 6 mps 758 mmHg 74%
    16:00 -3°C° 0.1 mm 6 mps 759 mmHg 77%
    17:00 -2°C° 0.1 mm 5 mps 759 mmHg 78%
    18:00 -2°C° 0.1 mm 5 mps 759 mmHg 80%
    19:00 -2°C° 0.1 mm 5 mps 759 mmHg 82%
    20:00 -2°C° 0 mm 5 mps 760 mmHg 82%
    21:00 -2°C° 0 mm 4 mps 760 mmHg 83%
    22:00 -2°C° 0 mm 4 mps 760 mmHg 83%
    23:00 -2°C° 0 mm 4 mps 760 mmHg 82%

    Tomorrow, 19 January, Saturday

    Time Temperature Precipitation Wind Pressure Humidity
    00:00 -2°C° 0 mm 4 mps 761 mmHg 80%
    01:00 -2°C° 0 mm 4 mps 761 mmHg 79%
    02:00 -2°C° 0 mm 4 mps 761 mmHg 80%
    03:00 -2°C° 0 mm 4 mps 761 mmHg 81%
    04:00 -2°C° 0 mm 5 mps 761 mmHg 82%
    05:00 -2°C° 0 mm 5 mps 761 mmHg 84%
    06:00 -2°C° 0 mm 5 mps 762 mmHg 87%
    07:00 -4°C° 0 mm 5 mps 762 mmHg 89%
    08:00 -2°C° 0 mm 5 mps 762 mmHg 88%
    09:00 -2°C° 0 mm 5 mps 762 mmHg 86%
    10:00 -2°C° 0 mm 5 mps 762 mmHg 85%
    11:00 -1°C° 0 mm 5 mps 762 mmHg 82%
    12:00 -1°C° 0 mm 5 mps 762 mmHg 79%
    13:00 0°C° 0 mm 5 mps 762 mmHg 77%
    14:00 -1°C° 0 mm 4 mps 762 mmHg 79%
    15:00 -1°C° 0 mm 4 mps 762 mmHg 82%
    16:00 -1°C° 0 mm 3 mps 762 mmHg 85%
    17:00 -1°C° 0 mm 3 mps 762 mmHg 86%
    18:00 -2°C° 0 mm 3 mps 762 mmHg 87%
    19:00 -3°C° 0 mm 4 mps 762 mmHg 89%
    20:00 -3°C° 0 mm 4 mps 762 mmHg 89%
    21:00 -3°C° 0 mm 4 mps 762 mmHg 89%
    22:00 -3°C° 0 mm 4 mps 762 mmHg 89%
    23:00 -3°C° 0 mm 4 mps 762 mmHg 89%

    Day after tomorrow, 20 January, Sunday

    Time Temperature Precipitation Wind Pressure Humidity
    00:00 -3°C° 0 mm 4 mps 762 mmHg 89%
    01:00 -3°C° 0 mm 4 mps 762 mmHg 88%
    02:00 -4°C° 0 mm 3 mps 761 mmHg 89%
    03:00 -4°C° 0 mm 3 mps 761 mmHg 89%
    04:00 -4°C° 0 mm 3 mps 761 mmHg 89%
    05:00 -4°C° 0 mm 3 mps 761 mmHg 89%
    06:00 -4°C° 0 mm 3 mps 761 mmHg 90%
    07:00 -4°C° 0 mm 3 mps 761 mmHg 90%
    08:00 -2°C° 0 mm 3 mps 761 mmHg 89%
    09:00 -2°C° 0 mm 3 mps 761 mmHg 87%
    10:00 -1°C° 0 mm 3 mps 762 mmHg 85%
    11:00 -1°C° 0 mm 3 mps 761 mmHg 84%
    12:00 -1°C° 0 mm 4 mps 761 mmHg 83%
    13:00 0°C° 0 mm 4 mps 761 mmHg 81%
    14:00 -1°C° 0 mm 4 mps 762 mmHg 84%
    15:00 -1°C° 0 mm 4 mps 762 mmHg 87%
    16:00 -2°C° 0 mm 4 mps 762 mmHg 90%
    17:00 -2°C° 0 mm 4 mps 762 mmHg 89%
    18:00 -2°C° 0 mm 4 mps 762 mmHg 89%
    19:00 -2°C° 0 mm 3 mps 763 mmHg 88%
    20:00 -1°C° 0 mm 3 mps 763 mmHg 88%
    21:00 -1°C° 0 mm 3 mps 763 mmHg 87%
    22:00 -1°C° 0 mm 3 mps 764 mmHg 87%
    23:00 -1°C° 0 mm 3 mps 764 mmHg 88%

    21 January, Monday

    Time Temperature Precipitation Wind Pressure Humidity
    00:00 -1°C° 0 mm 3 mps 764 mmHg 88%
    01:00 -1°C° 0 mm 2 mps 764 mmHg 89%
    02:00 -1°C° 0.1 mm 3 mps 764 mmHg 89%
    03:00 -1°C° 0.1 mm 3 mps 764 mmHg 89%
    04:00 -2°C° 0.1 mm 4 mps 764 mmHg 89%
    05:00 -2°C° 0 mm 4 mps 764 mmHg 89%
    06:00 -2°C° 0 mm 4 mps 764 mmHg 89%
    07:00 -4°C° 0 mm 5 mps 765 mmHg 89%
    08:00 -4°C° 0 mm 5 mps 765 mmHg 87%
    09:00 -4°C° 0 mm 5 mps 765 mmHg 85%
    10:00 -4°C° 0 mm 5 mps 765 mmHg 83%
    11:00 -3°C° 0 mm 6 mps 764 mmHg 78%
    12:00 -3°C° 0 mm 6 mps 764 mmHg 73%
    13:00 -2°C° 0 mm 6 mps 764 mmHg 68%
    14:00 -2°C° 0 mm 6 mps 763 mmHg 68%
    15:00 -3°C° 0 mm 6 mps 763 mmHg 68%
    16:00 -3°C° 0 mm 7 mps 762 mmHg 68%
    17:00 -3°C° 0.1 mm 7 mps 762 mmHg 67%
    18:00 -3°C° 0.1 mm 7 mps 762 mmHg 67%
    19:00 -3°C° 0.1 mm 7 mps 761 mmHg 67%
    20:00 -3°C° 0 mm 7 mps 761 mmHg 69%
    21:00 -4°C° 0 mm 7 mps 761 mmHg 72%
    22:00 -4°C° 0 mm 6 mps 761 mmHg 74%
    23:00 -4°C° 0 mm 6 mps 760 mmHg 75%

    22 January, Tuesday

    Time Temperature Precipitation Wind Pressure Humidity
    00:00 -4°C° 0 mm 6 mps 760 mmHg 76%
    01:00 -4°C° 0 mm 6 mps 760 mmHg 77%
    02:00 -4°C° 0 mm 6 mps 759 mmHg 78%
    03:00 -5°C° 0 mm 6 mps 758 mmHg 79%
    04:00 -5°C° 0 mm 5 mps 758 mmHg 80%
    05:00 -5°C° 0 mm 6 mps 757 mmHg 75%
    06:00 -5°C° 0 mm 6 mps 756 mmHg 69%
    07:00 -5°C° 0 mm 6 mps 756 mmHg 64%
    08:00 -6°C° 0 mm 7 mps 755 mmHg 63%
    09:00 -4°C° 0 mm 7 mps 755 mmHg 63%
    10:00 -4°C° 0 mm 7 mps 754 mmHg 62%
    11:00 -5°C° 0 mm 8 mps 753 mmHg 61%
    12:00 -4°C° 0 mm 8 mps 752 mmHg 59%
    13:00 -4°C° 0 mm 8 mps 751 mmHg 58%
    14:00 -4°C° 0 mm 8 mps 750 mmHg 58%
    15:00 -4°C° 0 mm 8 mps 750 mmHg 59%
    16:00 -4°C° 0 mm 8 mps 749 mmHg 60%
    17:00 -4°C° 0 mm 8 mps 748 mmHg 59%
    18:00 -4°C° 0 mm 8 mps 748 mmHg 59%
    19:00 -4°C° 0 mm 9 mps 747 mmHg 58%
    20:00 -4°C° 0 mm 8 mps 747 mmHg 60%
    21:00 -4°C° 0 mm 8 mps 746 mmHg 62%
    22:00 -5°C° 0 mm 8 mps 746 mmHg 64%
    23:00 -5°C° 0.1 mm 8 mps 746 mmHg 68%

    23 January, Wednesday

    Time Temperature Precipitation Wind Pressure Humidity
    00:00 -4°C° 0.1 mm 7 mps 745 mmHg 72%
    01:00 -4°C° 0.1 mm 7 mps 745 mmHg 76%
    02:00 -4°C° 0.1 mm 7 mps 745 mmHg 78%
    03:00 -4°C° 0.1 mm 7 mps 744 mmHg 80%
    04:00 -4°C° 0.1 mm 6 mps 744 mmHg 82%
    05:00 -4°C° 0 mm 6 mps 744 mmHg 83%
    06:00 -4°C° 0 mm 6 mps 744 mmHg 84%
    07:00 -4°C° 0 mm 6 mps 744 mmHg 84%
    08:00 -4°C° 0 mm 5 mps 744 mmHg 83%
    09:00 -4°C° 0 mm 5 mps 744 mmHg 81%
    10:00 -4°C° 0 mm 5 mps 744 mmHg 79%
    11:00 -2°C° 0 mm 4 mps 744 mmHg 76%
    12:00 -2°C° 0 mm 4 mps 744 mmHg 73%
    13:00 -1°C° 0 mm 3 mps 743 mmHg 71%
    14:00 -1°C° 0 mm 3 mps 743 mmHg 72%
    15:00 -1°C° 0 mm 3 mps 743 mmHg 74%
    16:00 -2°C° 0 mm 3 mps 743 mmHg 75%
    17:00 -3°C° 0.1 mm 4 mps 744 mmHg 78%
    18:00 -3°C° 0.1 mm 4 mps 744 mmHg 80%
    19:00 -3°C° 0.1 mm 4 mps 744 mmHg 82%
    20:00 -3°C° 0 mm 4 mps 744 mmHg 81%
    21:00 -4°C° 0 mm 4 mps 744 mmHg 80%
    22:00 -4°C° 0 mm 3 mps 744 mmHg 80%
    23:00 -4°C° 0 mm 3 mps 744 mmHg 81%
    Show more